Temp
-11 -12 -12 -11 -11 -11 -11 -10 -10 -10 -10 -10 -10 -10 -10 -10 -10 -9 -10 -9 -9 -9 -10 -10 -10 -9 -9 -9 -10 -11 -10 -9 -9 -9 -9 -9 -9 -9 -9 -9 -9 -9 -9
-11 -11 -11 -11 -11 -11 -11 -11 -10 -10 -10 -10 -10 -10 -10 -10 -9 -10 -10 -10 -10 -9 -10 -10 -10 -9 -9 -9 -10 -11 -11 -9 -9 -9 -9 -9 -9 -9 -9 -9 -9 -9 -9
-12 -11 -11 -11 -11 -10 -11 -11 -11 -11 -10 -10 -10 -10 -10 -10 -10 -10 -10 -10 -10 -10 -10 -10 -10 -10 -9 -9 -10 -10 -9 -9 -9 -9 -9 -9 -9 -9 -9 -9 -9 -9 -9
-12 -12 -12 -11 -11 -11 -11 -11 -11 -11 -11 -11 -10 -10 -10 -10 -10 -10 -10 -10 -10 -10 -10 -10 -10 -10 -9 -9 -9 -9 -9 -9 -10 -9 -9 -9 -9 -9 -9 -9 -9 -9 -9
-11 -11 -11 -11 -11 -11 -11 -11 -11 -11 -11 -11 -11 -11 -11 -11 -10 -10 -10 -10 -10 -10 -10 -10 -10 -10 -10 -9 -9 -9 -9 -9 -9 -10 -10 -9 -9 -9 -9 -9 -9 -9 -9
-11 -12 -11 -11 -11 -11 -11 -11 -11 -11 -11 -11 -11 -11 -11 -11 -11 -11 -11 -10 -10 -10 -10 -10 -10 -10 -10 -10 -9 -9 -9 -9 -9 -9 -10 -10 -10 -10 -9 -9 -9 -9 -9
-11 -11 -11 -11 -11 -11 -11 -10 -10 -10 -10 -10 -10 -10 -10 -11 -11 -11 -11 -11 -11 -10 -10 -10 -10 -10 -10 -10 -10 -9 -9 -9 -9 -9 -9 -10 -10 -10 -10 -10 -10 -10 -10
-11 -11 -11 -11 -11 -11 -11 -11 -11 -11 -11 -11 -11 -11 -11 -11 -11 -10 -10 -10 -10 -10 -10 -10 -10 -10 -10 -10 -10 -10 -10 -9 -9 -9 -9 -9 -9 -10 -10 -10 -10 -10 -10
-12 -11 -11 -11 -11 -11 -11 -11 -11 -11 -11 -11 -11 -11 -11 -11 -11 -11 -11 -10 -10 -10 -10 -10 -10 -10 -10 -10 -10 -10 -10 -10 -10 -10 -10 -10 -9 -10 -10 -10 -10 -10 -10
-12 -12 -12 -12 -11 -11 -11 -11 -11 -11 -11 -11 -11 -11 -11 -11 -11 -11 -11 -11 -11 -10 -10 -11 -10 -10 -10 -10 -10 -10 -10 -10 -10 -10 -10 -10 -10 -10 -10 -10 -10 -10 -10
-11 -11 -11 -11 -11 -11 -11 -11 -11 -12 -12 -12 -11 -11 -11 -11 -11 -11 -11 -11 -11 -11 -11 -11 -11 -10 -10 -10 -10 -11 -11 -10 -11 -11 -10 -10 -10 -10 -10 -10 -10 -10 -10
-11 -11 -11 -11 -11 -11 -11 -11 -11 -11 -11 -11 -11 -11 -11 -11 -11 -11 -11 -11 -11 -11 -11 -11 -11 -11 -11 -11 -11 -11 -11 -11 -11 -11 -11 -11 -10 -10 -10 -10 -10 -10 -10
-11 -11 -11 -10 -10 -10 -10 -10 -10 -11 -11 -11 -11 -11 -11 -11 -11 -11 -11 -11 -11 -11 -12 -12 -12 -11 -11 -11 -11 -11 -11 -11 -11 -11 -11 -11 -11 -11 -10 -10 -10 -10 -10
-10 -10 -10 -10 -10 -10 -10 -10 -10 -10 -11 -11 -11 -11 -11 -11 -11 -11 -11 -11 -11 -11 -11 -12 -12 -12 -12 -12 -11 -11 -11 -11 -11 -12 -12 -11 -11 -11 -11 -11 -11 -11 -11
-10 -10 -10 -10 -11 -11 -10 -10 -10 -11 -10 -11 -11 -11 -11 -11 -11 -11 -11 -11 -11 -11 -12 -11 -11 -11 -12 -12 -12 -12 -11 -11 -12 -11 -12 -12 -12 -12 -11 -11 -11 -11 -11
-11 -11 -11 -11 -11 -11 -11 -11 -11 -11 -11 -11 -11 -11 -11 -11 -11 -11 -11 -11 -11 -11 -11 -11 -11 -12 -12 -12 -12 -12 -12 -12 -12 -12 -12 -12 -12 -12 -12 -12 -12 -11 -11
-11 -11 -11 -11 -11 -11 -11 -11 -11 -11 -11 -11 -11 -11 -11 -11 -11 -11 -11 -11 -11 -11 -12 -12 -12 -11 -12 -12 -12 -12 -12 -12 -12 -12 -12 -13 -12 -12 -12 -12 -12 -12 -12
-11 -11 -11 -11 -11 -11 -11 -11 -12 -12 -12 -12 -12 -12 -12 -12 -12 -12 -12 -12 -12 -12 -12 -12 -12 -12 -12 -12 -12 -12 -12 -12 -13 -12 -12 -13 -13 -13 -13 -13 -13 -12 -12
-11 -11 -12 -12 -12 -12 -12 -12 -12 -12 -13 -13 -12 -13 -13 -13 -13 -13 -13 -13 -13 -13 -13 -12 -12 -12 -12 -12 -12 -12 -12 -12 -12 -13 -13 -13 -13 -13 -14 -13 -13 -13 -13
-12 -12 -12 -12 -13 -13 -13 -13 -13 -13 -14 -14 -14 -14 -14 -14 -14 -14 -14 -14 -14 -14 -14 -14 -13 -13 -13 -13 -13 -13 -13 -13 -13 -13 -13 -13 -13 -13 -14 -14 -14 -13 -13
-12 -12 -12 -12 -13 -13 -13 -13 -14 -14 -14 -15 -15 -15 -15 -15 -15 -15 -15 -15 -14 -14 -15 -14 -14 -14 -14 -13 -13 -13 -13 -13 -13 -13 -13 -13 -13 -14 -14 -14 -14 -14 -13
-12 -12 -13 -13 -13 -13 -14 -14 -15 -16 -16 -16 -16 -16 -16 -15 -15 -16 -16 -16 -15 -15 -15 -15 -15 -15 -15 -15 -14 -14 -14 -14 -14 -13 -14 -14 -14 -14 -14 -14 -14 -14 -14
-12 -13 -13 -14 -14 -14 -15 -15 -15 -16 -16 -16 -17 -17 -17 -17 -17 -17 -17 -17 -17 -16 -16 -16 -16 -16 -16 -16 -15 -15 -14 -14 -14 -14 -14 -14 -14 -14 -14 -14 -14 -14 -14
-13 -14 -14 -15 -15 -15 -15 -15 -15 -16 -16 -17 -17 -18 -18 -18 -18 -18 -18 -17 -17 -17 -17 -17 -17 -17 -16 -17 -17 -17 -16 -15 -14 -15 -15 -14 -14 -15 -14 -14 -14 -14 -14
-14 -15 -15 -15 -15 -16 -16 -16 -16 -17 -17 -17 -17 -18 -18 -18 -19 -19 -19 -19 -18 -18 -18 -18 -18 -18 -17 -17 -17 -17 -17 -16 -16 -15 -15 -16 -15 -14 -15 -14 -14 -14 -14
-15 -15 -16 -16 -16 -17 -17 -17 -17 -18 -18 -18 -19 -19 -19 -19 -19 -19 -19 -19 -19 -20 -19 -19 -18 -18 -18 -18 -17 -17 -17 -17 -16 -16 -16 -16 -16 -15 -15 -15 -15 -14 -14
Height
5850 5851 5852 5854 5855 5857 5858 5858 5859 5859 5860 5860 5860 5859 5859 5859 5859 5859 5859 5860 5859 5859 5859 5858 5858 5857 5856 5856 5855 5855 5856 5857 5857 5858 5859 5859 5859 5859 5860 5860 5860 5860 5861
5848 5850 5852 5853 5855 5856 5857 5857 5858 5858 5858 5858 5858 5858 5858 5858 5857 5858 5858 5858 5858 5858 5858 5857 5858 5857 5857 5856 5856 5856 5857 5858 5858 5859 5858 5858 5858 5859 5860 5860 5860 5861 5861
5846 5850 5852 5853 5855 5855 5856 5856 5856 5857 5857 5858 5857 5857 5857 5857 5857 5856 5856 5856 5856 5857 5857 5856 5856 5857 5857 5857 5857 5857 5858 5858 5858 5858 5858 5859 5859 5860 5860 5861 5860 5861 5862
5846 5849 5851 5852 5853 5854 5855 5855 5855 5855 5856 5856 5856 5856 5856 5856 5856 5856 5855 5855 5855 5855 5855 5855 5855 5855 5856 5856 5857 5857 5858 5857 5857 5858 5859 5858 5859 5860 5861 5861 5860 5861 5862
5847 5848 5850 5850 5851 5852 5853 5853 5853 5853 5853 5852 5852 5853 5852 5853 5854 5854 5854 5854 5853 5853 5854 5854 5854 5854 5854 5854 5855 5856 5857 5857 5857 5857 5858 5858 5859 5859 5860 5860 5860 5861 5862
5847 5849 5850 5850 5850 5851 5851 5851 5851 5851 5851 5851 5850 5850 5850 5850 5849 5850 5851 5851 5851 5851 5851 5852 5852 5851 5851 5852 5853 5853 5854 5855 5856 5856 5856 5857 5857 5859 5859 5860 5860 5860 5860
5847 5848 5848 5849 5849 5849 5848 5848 5848 5848 5849 5849 5848 5848 5848 5847 5846 5846 5846 5846 5846 5848 5848 5848 5849 5849 5849 5849 5849 5850 5851 5851 5852 5853 5854 5855 5856 5857 5858 5859 5859 5859 5860
5846 5846 5847 5847 5847 5847 5847 5847 5847 5847 5846 5846 5846 5846 5845 5844 5843 5842 5842 5842 5842 5842 5843 5844 5845 5845 5845 5845 5846 5846 5847 5848 5848 5849 5850 5852 5853 5854 5855 5856 5856 5857 5858
5846 5846 5846 5845 5845 5845 5844 5844 5844 5844 5843 5842 5842 5841 5841 5840 5839 5839 5838 5838 5837 5837 5837 5838 5839 5839 5840 5841 5841 5841 5842 5844 5845 5845 5846 5847 5848 5849 5850 5852 5853 5854 5855
5845 5844 5843 5843 5842 5842 5842 5842 5841 5841 5840 5839 5838 5837 5837 5836 5835 5835 5833 5833 5833 5832 5832 5831 5833 5833 5834 5835 5836 5837 5838 5838 5839 5841 5842 5842 5844 5844 5845 5847 5848 5849 5851
5844 5844 5843 5842 5841 5840 5840 5839 5838 5838 5836 5835 5834 5833 5833 5832 5831 5830 5829 5829 5828 5828 5828 5828 5827 5827 5828 5829 5830 5831 5832 5833 5834 5835 5835 5837 5838 5838 5840 5841 5843 5844 5845
5841 5840 5839 5838 5838 5837 5836 5836 5835 5835 5834 5832 5830 5828 5828 5826 5825 5825 5824 5823 5823 5823 5822 5822 5821 5820 5821 5821 5822 5823 5824 5826 5828 5829 5829 5831 5832 5833 5834 5835 5837 5838 5839
5838 5837 5836 5835 5834 5833 5832 5831 5830 5829 5828 5826 5825 5824 5822 5821 5820 5819 5818 5816 5815 5814 5815 5815 5814 5814 5814 5814 5815 5816 5817 5818 5819 5821 5822 5823 5825 5827 5828 5829 5830 5833 5833
5835 5834 5833 5831 5830 5828 5827 5825 5824 5823 5822 5821 5819 5817 5815 5814 5813 5813 5812 5811 5809 5808 5807 5806 5805 5806 5806 5807 5808 5807 5808 5809 5811 5812 5814 5815 5816 5819 5821 5823 5824 5825 5827
5831 5829 5828 5826 5825 5823 5821 5820 5818 5817 5815 5813 5811 5809 5808 5806 5805 5804 5803 5802 5801 5801 5799 5798 5798 5797 5797 5798 5798 5799 5799 5800 5801 5803 5806 5806 5808 5809 5811 5814 5816 5818 5819
5826 5824 5822 5820 5818 5816 5814 5811 5809 5807 5805 5804 5802 5800 5798 5796 5794 5793 5793 5792 5791 5790 5790 5789 5789 5789 5789 5788 5788 5789 5790 5791 5792 5793 5795 5796 5798 5801 5803 5804 5806 5808 5810
5820 5819 5816 5814 5811 5808 5805 5802 5800 5797 5794 5792 5790 5788 5786 5784 5783 5781 5780 5779 5779 5779 5778 5778 5778 5778 5779 5779 5778 5778 5779 5780 5782 5783 5784 5787 5788 5790 5793 5795 5797 5799 5801
5812 5809 5806 5803 5800 5797 5794 5791 5788 5784 5781 5778 5775 5773 5772 5771 5769 5768 5767 5765 5764 5764 5764 5765 5765 5765 5766 5766 5767 5768 5768 5769 5770 5772 5773 5775 5777 5779 5782 5784 5786 5790 5792
5801 5797 5794 5792 5788 5785 5782 5779 5775 5772 5768 5764 5760 5758 5755 5753 5753 5752 5751 5751 5750 5749 5749 5749 5749 5751 5751 5752 5754 5755 5755 5757 5758 5759 5761 5763 5765 5767 5769 5772 5775 5778 5782
5792 5789 5785 5781 5777 5773 5768 5764 5761 5757 5753 5751 5748 5745 5741 5738 5736 5735 5733 5733 5732 5733 5732 5733 5734 5733 5734 5736 5739 5740 5742 5743 5744 5746 5747 5750 5753 5755 5757 5760 5762 5765 5769
5781 5777 5772 5768 5763 5757 5754 5749 5744 5740 5736 5733 5729 5725 5723 5721 5719 5716 5715 5714 5713 5713 5713 5714 5715 5717 5716 5718 5720 5724 5726 5727 5729 5732 5733 5735 5738 5741 5744 5746 5750 5753 5756
5770 5764 5759 5754 5750 5746 5740 5735 5731 5724 5719 5714 5710 5707 5704 5700 5698 5696 5694 5694 5693 5693 5693 5693 5694 5697 5698 5698 5701 5704 5709 5711 5712 5716 5718 5721 5723 5726 5730 5733 5737 5740 5744
5756 5750 5745 5740 5735 5730 5724 5717 5713 5708 5703 5698 5693 5690 5684 5680 5677 5675 5674 5672 5672 5672 5673 5672 5672 5674 5678 5677 5679 5682 5686 5690 5697 5698 5701 5704 5707 5711 5714 5718 5722 5726 5729
5743 5738 5732 5726 5719 5713 5707 5702 5696 5690 5686 5679 5675 5670 5665 5660 5657 5653 5650 5650 5650 5649 5649 5649 5649 5650 5652 5658 5657 5658 5662 5667 5672 5681 5682 5686 5690 5694 5698 5702 5707 5711 5716
5730 5722 5715 5709 5703 5696 5689 5684 5679 5673 5666 5663 5657 5652 5648 5643 5638 5635 5631 5628 5626 5625 5625 5625 5626 5626 5627 5631 5634 5635 5636 5641 5648 5654 5664 5667 5669 5676 5681 5686 5691 5696 5700
5711 5705 5699 5692 5685 5679 5674 5667 5660 5653 5649 5644 5637 5632 5627 5624 5619 5616 5612 5609 5606 5604 5601 5600 5600 5602 5604 5605 5609 5612 5614 5617 5621 5625 5634 5646 5651 5658 5663 5669 5675 5679 5684
Wind_Speed
9 4 3 3 2 3 5 6 6 5 5 7 6 6 6 8 9 10 11 10 10 10 9 7 7 6 5 4 1 7 13 8 8 8 7 7 7 7 6 6 7 9 11
13 4 4 2 3 4 4 5 7 8 8 8 9 9 10 10 11 10 10 10 9 10 10 9 7 7 4 2 2 8 10 9 9 8 7 7 8 7 6 5 7 8 10
13 4 1 2 5 6 6 7 7 7 8 10 11 11 12 12 13 13 12 11 9 8 8 9 7 7 6 4 6 8 9 9 9 8 9 9 9 7 5 6 8 10 11
8 3 3 2 4 6 8 10 10 10 10 10 11 13 14 14 15 14 15 14 13 11 9 8 9 9 7 6 8 12 11 12 11 10 10 9 9 10 8 8 8 11 11
5 2 3 3 4 6 7 8 10 11 13 14 14 14 14 15 15 16 17 17 16 17 14 11 10 12 12 9 9 12 15 14 12 12 11 10 11 11 11 10 9 10 12
5 3 4 6 8 9 9 10 11 12 13 14 15 17 17 18 18 18 18 18 18 18 19 16 14 12 14 14 13 13 15 16 16 17 15 15 15 14 12 11 11 10 12
1 3 5 6 7 9 12 13 15 15 16 16 17 17 18 19 20 21 21 21 21 21 20 19 18 16 16 16 17 16 16 18 18 21 20 19 18 17 16 15 13 12 13
3 4 5 6 7 9 10 11 12 13 15 17 19 19 20 21 22 23 23 23 23 23 23 23 23 21 19 19 19 20 20 20 20 21 23 23 23 23 21 19 18 17 16
8 9 9 9 11 12 12 13 14 15 15 17 17 18 19 20 23 25 26 26 26 26 26 26 26 26 25 23 22 22 23 23 24 24 24 26 27 27 25 25 25 23 20
10 11 12 13 13 14 15 17 18 19 18 20 22 22 22 22 23 23 24 24 26 29 30 29 29 29 28 28 27 26 26 26 27 27 27 28 28 29 30 29 28 28 27
14 14 15 16 17 17 17 18 19 21 22 23 24 25 26 26 27 27 27 27 27 26 27 29 32 32 31 30 30 30 29 29 29 29 30 32 31 32 33 33 31 30 29
15 16 17 18 19 21 22 22 23 23 25 26 28 29 29 28 29 30 31 31 30 29 28 29 30 31 33 34 34 34 34 33 33 33 32 33 35 35 35 35 35 34 33
19 20 20 21 23 25 26 26 27 28 28 29 30 31 32 32 33 33 33 33 33 34 34 33 32 32 32 33 34 37 37 36 36 36 37 36 35 36 37 37 36 38 36
21 24 26 27 29 31 33 34 34 35 35 35 36 36 37 37 37 37 37 37 37 37 37 37 36 35 35 34 35 36 37 39 39 39 39 39 40 37 38 38 38 38 36
24 26 28 30 32 34 35 38 40 41 42 43 43 43 44 43 43 42 41 41 41 41 41 40 40 39 38 39 39 38 39 40 41 42 41 42 42 42 41 39 40 41 39
30 32 34 36 38 40 42 43 45 46 47 48 49 50 50 50 49 49 49 48 46 45 46 46 45 44 44 43 43 43 42 41 42 44 44 45 45 44 43 44 43 41 42
34 37 39 41 43 45 48 49 51 53 55 55 55 55 55 55 55 55 54 54 53 53 52 51 50 49 48 47 47 46 45 46 44 44 46 46 48 48 48 46 47 47 46
37 40 43 45 47 49 51 53 55 57 59 60 61 62 62 61 60 59 59 59 58 58 57 56 55 54 53 52 51 50 50 49 48 48 47 48 50 48 49 50 50 50 48
43 45 47 50 52 54 57 59 61 62 63 64 65 66 66 66 65 64 63 63 63 62 62 61 60 59 58 58 55 55 54 53 52 51 51 50 50 53 51 51 51 51 51
48 51 54 57 58 61 63 64 65 67 67 68 68 69 69 70 70 70 69 69 68 67 66 65 64 64 63 62 61 59 58 57 56 55 54 54 54 53 54 55 55 53 53
53 57 60 62 64 66 67 69 71 70 71 71 72 72 72 73 74 74 74 75 75 74 72 72 69 68 68 67 66 65 62 61 60 59 58 57 57 56 55 55 58 58 57
56 60 62 64 67 68 70 71 73 72 73 73 75 76 75 76 77 77 77 78 78 78 77 76 76 74 73 73 72 70 68 67 65 64 62 61 60 59 57 56 56 58 60
59 61 61 62 64 66 68 70 72 73 73 72 73 74 76 77 77 78 79 79 78 79 79 79 80 80 77 76 76 76 75 73 69 69 67 65 64 63 61 59 57 56 58
58 57 56 57 58 60 63 66 68 70 71 72 73 73 73 75 76 77 78 79 79 80 80 81 81 82 82 79 79 81 80 77 76 72 71 70 69 67 65 63 61 58 58
55 55 58 60 61 62 64 66 67 69 69 69 70 70 72 72 73 74 76 78 79 80 80 78 78 81 82 83 83 81 82 84 82 80 75 73 75 73 70 68 65 62 60
59 60 62 63 65 66 66 68 69 69 69 69 68 68 68 69 70 73 75 76 78 79 81 81 79 79 79 79 80 82 84 84 85 87 85 82 79 76 75 71 69 67 65
Wind_Direction
151 146 158 185 191 228 246 258 271 281 269 268 271 273 271 277 289 297 306 308 306 306 307 310 316 342 344 312 278 194 179 179 179 192 196 194 182 182 182 177 177 164 162
164 154 178 221 248 254 267 267 270 268 264 266 266 263 266 271 277 280 287 299 308 310 307 307 300 323 320 269 182 207 168 187 184 195 202 207 200 192 196 193 180 170 168
96 43 22 264 256 260 255 260 261 268 268 266 268 269 267 266 265 270 276 279 285 289 288 295 286 292 297 256 203 183 194 195 202 198 200 203 207 206 212 198 186 185 175
98 78 7 313 259 251 253 258 262 262 262 264 262 262 263 266 263 262 265 275 280 279 279 278 274 263 271 264 227 208 221 218 205 207 211 204 211 210 207 210 193 188 187
43 33 313 269 269 270 264 263 267 265 261 259 261 262 264 266 266 268 268 267 271 277 273 263 263 257 258 253 237 231 227 232 227 225 221 220 224 219 211 208 204 198 201
355 327 280 284 288 280 270 269 269 267 267 267 269 268 267 265 269 269 269 270 270 270 274 270 260 257 250 252 250 236 233 235 236 234 228 226 222 226 230 217 213 207 208
286 273 280 279 276 267 264 266 268 267 268 268 269 271 273 276 277 275 272 268 267 266 268 272 269 259 257 251 248 249 242 240 235 235 234 235 232 232 233 231 224 220 215
280 269 272 273 274 275 281 284 282 280 277 276 275 274 271 267 265 265 268 269 267 264 263 263 265 266 258 251 250 249 247 246 242 238 237 237 237 236 233 235 235 232 230
273 272 270 271 273 277 276 272 267 266 268 269 270 269 270 272 272 270 266 265 266 266 265 263 258 257 259 258 249 247 247 246 246 245 240 238 238 238 237 235 236 237 236
255 261 263 260 261 264 269 273 275 274 270 269 268 267 268 270 270 268 267 266 265 265 265 265 264 260 256 254 255 252 247 247 244 243 245 242 239 240 242 236 237 237 240
286 282 280 281 280 278 275 274 273 274 274 272 270 269 269 269 269 269 269 270 270 268 268 268 266 264 263 258 253 254 253 250 249 246 242 244 243 242 240 242 240 241 240
293 293 294 292 291 290 289 285 280 276 276 277 277 277 276 271 267 268 270 270 268 268 268 266 266 267 265 262 260 253 250 250 250 248 249 247 244 244 245 244 242 241 240
290 289 291 291 291 290 290 288 286 285 283 280 276 274 273 273 273 273 270 269 269 269 266 264 263 264 266 265 263 262 259 253 250 250 249 248 248 247 247 247 247 243 242
298 297 296 294 293 291 291 290 288 287 284 281 280 279 277 276 275 273 271 269 268 268 267 265 264 263 262 264 266 263 260 259 255 250 249 249 248 248 246 248 250 246 247
292 292 291 290 289 288 287 286 285 283 282 280 279 278 278 278 277 275 273 271 271 268 267 267 267 267 265 262 261 261 261 259 257 254 252 249 247 247 246 244 245 248 248
293 293 292 291 291 290 288 287 285 283 282 280 279 277 275 274 273 274 274 273 271 268 268 268 268 266 265 264 263 261 258 259 259 256 253 251 250 247 247 247 246 245 247
293 294 293 291 290 288 286 285 284 284 282 281 279 277 276 274 272 271 270 270 270 270 268 267 267 266 265 263 262 261 260 259 255 257 257 253 251 249 246 246 245 246 246
293 291 290 288 286 285 283 282 280 279 278 277 277 276 275 273 272 271 269 268 268 267 267 267 266 265 264 263 262 261 260 259 258 255 254 255 252 249 248 247 246 245 244
285 284 284 285 284 283 283 282 281 279 278 276 274 274 274 274 273 271 269 268 266 265 265 264 264 264 263 262 260 260 259 259 258 257 256 253 253 251 246 245 246 246 247
291 292 291 290 289 288 286 285 284 282 280 279 278 277 275 274 273 273 271 269 267 267 265 263 263 262 261 261 261 258 258 258 257 256 256 254 252 250 250 246 244 244 243
291 291 291 290 288 287 287 286 284 283 282 280 278 276 276 275 273 272 270 270 269 267 266 264 263 261 262 260 258 259 258 256 255 255 253 255 254 251 248 249 247 244 244
287 287 288 287 287 287 286 285 285 284 282 281 280 280 278 276 275 272 270 268 267 267 267 266 264 261 260 260 259 257 255 255 254 254 253 252 252 252 251 247 247 248 245
287 287 288 288 287 287 285 284 284 284 283 282 281 280 279 278 277 276 275 272 270 268 266 266 265 263 261 260 258 257 256 253 253 254 252 252 250 250 250 249 245 245 247
289 289 290 289 287 286 286 286 285 284 284 284 282 282 281 281 280 279 277 275 273 270 268 266 264 263 261 259 259 257 255 254 252 248 252 251 251 249 248 248 248 243 242
293 292 291 291 290 290 289 290 289 287 285 284 283 282 281 280 280 279 278 277 276 274 272 269 265 264 263 260 259 258 257 253 251 250 246 249 250 249 248 247 246 246 243
295 294 295 294 294 293 293 293 292 291 290 288 287 286 284 281 279 278 277 276 275 275 274 273 271 267 265 263 260 258 257 255 254 251 248 246 248 251 250 248 246 245 244